Stations météo

réclame
Mon MeteoGroup
La Roche-Sur-Yon, France (7306): Température de l'air & dewpoint: 18.04.2018 08:00:00 - 24.04.2018 08:00:00 (CEST)La Roche-Sur-Yon, France (7306): Température de l'air 5cm: 18.04.2018 08:00:00 - 24.04.2018 08:00:00 (CEST)La Roche-Sur-Yon, France (7306): Température de l'air -20cm & Température de l'air -100cm: 18.04.2018 08:00:00 - 24.04.2018 08:00:00 (CEST)La Roche-Sur-Yon, France (7306): Vitesse du vent & gusts: 18.04.2018 08:00:00 - 24.04.2018 08:00:00 (CEST)La Roche-Sur-Yon, France (7306): Direction du vent: 18.04.2018 08:00:00 - 24.04.2018 08:00:00 (CEST)La Roche-Sur-Yon, France (7306): reduced air pressure: 18.04.2018 08:00:00 - 24.04.2018 08:00:00 (CEST)La Roche-Sur-Yon, France (7306): visibility: 18.04.2018 08:00:00 - 24.04.2018 08:00:00 (CEST)La Roche-Sur-Yon, France (7306): Ensoleillement: 18.04.2018 08:00:00 - 24.04.2018 08:00:00 (CEST)La Roche-Sur-Yon, France (7306): Quantités de précipitations: 18.04.2018 08:00:00 - 24.04.2018 08:00:00 (CEST)
Date & Time tt [°C] td [°C] tt 5cm [°C] tt -20cm [°C] tt -100cm [°C] ff [km/h] ff [knt] fx [km/h] fx [knt] dd ppp [hPa] vv [km] sd [min] rr [mm]
24.04.2018 08:00:00 6,1 6,0 1,6 14,4 12,4 6 3 7 4 S 1021,2 6 35 0,0
24.04.2018 07:00:00 6,4 6,3 0,7 14,6 12,4 4 2 4 2 SSW 1021,0 0,4 0 0,0
24.04.2018 06:00:00 6,9 6,8 0,9 14,7 12,4 2 1 5 3 W 1021,0 2,6 0 0,0
24.04.2018 05:00:00 6,8 6,5 1,1 14,9 12,4 4 2 6 3 WSW 1021,3 1,3 0 0,0
24.04.2018 04:00:00 7,0 6,6 1,5 15,1 12,4 5 3 8 4 W 1021,4 9 0 0,0
24.04.2018 03:00:00 7,4 7,0 1,7 15,2 12,4 4 2 7 4 W 1021,8 18 0 0,0
24.04.2018 02:00:00 7,6 6,8 2,3 15,4 12,4 5 3 8 5 W 1021,9 35 0 0,0
24.04.2018 01:00:00 7,8 6,7 3,1 15,5 12,4 6 3 10 5 WNW 1022,0 54 0 0,0
24.04.2018 00:00:00 8,7 7,3 4,4 15,6 12,4 7 4 12 7 WNW 1022,4 60 0 0,0
23.04.2018 23:00:00 9,5 7,6 6,7 15,7 12,4 6 4 13 7 W 1022,4 60 0 0,0
23.04.2018 22:00:00 10,7 7,9 8,8 15,7 12,3 8 5 15 8 W 1021,8 20 0 0,0
23.04.2018 21:00:00 12,3 8,2 10,7 15,7 12,3 9 5 19 10 W 1021,3 60 40 0,0
23.04.2018 20:00:00 14,8 8,5 15,8 15,7 12,3 11 6 22 12 W 1020,8 52 54 0,0
23.04.2018 19:00:00 15,9 9,3 17,0 15,6 12,3 12 6 20 11 W 1020,8 56 42 0,0
23.04.2018 18:00:00 16,6 10,0 18,7 15,4 12,3 13 7 26 14 WSW 1020,6 20 55 0,0
23.04.2018 17:00:00 17,5 11,5 19,0 15,3 12,3 10 6 22 12 SW 1020,7 20 27 0,0
23.04.2018 16:00:00 16,8 10,6 18,8 15,2 12,3 14 8 23 12 WSW 1021,2 60 22 0,0
23.04.2018 15:00:00 16,1 11,0 18,1 15,2 12,3 9 5 18 10 W 1021,2 59 0 0,0
23.04.2018 14:00:00 15,1 10,5 17,4 15,2 12,3 7 4 14 8 NW 1021,6 60 0 0,0
23.04.2018 13:00:00 14,9 11,3 15,2 15,2 12,3 5 3 14 7 SW 1021,8 41 0 0,0
23.04.2018 12:00:00 13,7 10,1 14,7 15,2 12,3 6 3 14 7 NW 1021,8 60 0 0,0
23.04.2018 11:00:00 13,4 10,4 13,6 15,3 12,2 9 5 18 10 WNW 1021,4 60 0 0,0
23.04.2018 10:00:00 13,0 10,9 13,3 15,3 12,2 10 6 16 9 NW 1020,9 18 0 0,0
23.04.2018 09:00:00 12,7 11,1 12,1 15,4 12,2 10 5 14 8 NW 1020,0 55 4 0,0
23.04.2018 08:00:00 11,5 10,9 9,8 15,5 12,2 6 3 12 7 WNW 1019,6 20 15 0,0
23.04.2018 07:00:00 11,7 10,9 11,0 15,7 12,2 9 5 16 8 NW 1019,0 19 0 0,0
23.04.2018 06:00:00 11,3 10,8 8,6 15,8 12,2 9 5 15 8 WNW 1019,1 14 0 0,0
23.04.2018 05:00:00 11,0 10,2 9,6 15,9 12,2 6 3 15 8 W 1018,9 7 0 0,0
23.04.2018 04:00:00 11,1 10,3 9,7 16,0 12,2 8 5 13 7 W 1018,3 3,8 0 0,0
23.04.2018 03:00:00 11,7 10,4 10,8 16,1 12,1 8 5 16 8 W 1018,3 4,6 0 0,0
23.04.2018 02:00:00 13,2 11,3 12,9 16,2 12,1 9 5 20 11 W 1018,3 7 0 0,0
23.04.2018 01:00:00 13,6 11,8 13,5 16,3 12,1 8 5 22 12 W 1017,8 6 0 0,0
23.04.2018 00:00:00 13,7 12,3 13,7 16,4 12,1 12 7 23 12 W 1017,7 7 0 0,0
22.04.2018 23:00:00 13,9 12,8 13,1 16,4 12,1 8 5 13 7 WSW 1017,2 7 0 0,0
22.04.2018 22:00:00 14,5 13,0 14,3 16,5 12,1 9 5 16 9 WSW 1016,4 10 0 0,0
22.04.2018 21:00:00 15,0 13,0 14,6 16,5 12,1 9 5 22 12 WSW 1015,8 17 0 0,0
22.04.2018 20:00:00 16,1 13,4 15,7 16,5 12,1 9 5 17 9 W 1015,2 19 0 0,0
22.04.2018 19:00:00 17,2 12,7 16,7 16,3 12,0 8 5 16 9 SW 1015,0 20 0 0,0
22.04.2018 18:00:00 18,7 12,4 19,8 16,2 12,0 11 6 27 14 WSW 1014,6 51 11 0,0
22.04.2018 17:00:00 20,8 13,2 22,1 16,1 12,0 13 7 21 11 W 1014,3 49 14 0,0
22.04.2018 16:00:00 20,9 13,8 22,6 15,9 12,0 6 3 17 9 SW 1014,3 20 0 0,0
22.04.2018 15:00:00 20,6 13,5 23,1 15,7 12,0 13 7 19 10 WSW 1014,5 20 24 0,0
22.04.2018 14:00:00 19,9 15,1 21,5 15,5 12,0 14 8 28 15 W 1014,6 18 49 0,0
22.04.2018 13:00:00 22,7 13,2 26,9 15,5 12,0 17 9 29 16 SW 1014,1 19 60 0,0
22.04.2018 12:00:00 22,0 15,8 23,0 15,4 11,9 11 6 18 10 S 1014,0 19 57 0,0
22.04.2018 11:00:00 18,9 14,2 20,9 15,4 11,9 9 5 15 8 S 1014,1 20 50 0,0
22.04.2018 10:00:00 16,2 13,5 15,9 15,5 11,9 6 3 16 8 S 1014,0 18 8 0,0
22.04.2018 09:00:00 15,6 12,3 13,9 15,6 11,9 11 6 19 10 SSE 1013,6 19 22 0,0
22.04.2018 08:00:00 14,3 11,3 12,3 15,7 11,9 11 6 15 8 SSE 1013,6 20 0 0,0
22.04.2018 07:00:00 14,8 11,0 10,1 15,8 11,9 8 4 13 7 SSE 1013,4 20 0 0,0
22.04.2018 06:00:00 13,9 10,7 10,1 16,0 11,9 7 4 11 6 SSE 1013,7 20 0 0,0
22.04.2018 05:00:00 14,1 10,7 9,9 16,1 11,8 6 3 8 4 SSE 1013,9 18 0 0,0
22.04.2018 04:00:00 13,3 12,0 9,7 16,2 11,8 0 0 3 2 N 1014,2 15 0 0,0
22.04.2018 03:00:00 13,4 10,2 10,1 16,4 11,8 0 0 12 6 N 1014,4 4,6 0 0,0
22.04.2018 02:00:00 13,6 10,2 10,2 16,5 11,8 10 5 11 6 E 1014,6 20 0 0,0
22.04.2018 01:00:00 15,6 11,2 11,4 16,6 11,8 6 3 9 5 E 1014,8 20 0 0,0
22.04.2018 00:00:00 16,0 11,8 11,9 16,7 11,8 7 4 8 5 NE 1015,0 20 0 0,0
21.04.2018 23:00:00 16,5 11,8 11,8 16,7 11,8 6 3 8 4 NNE 1015,2 38 0 0,0
21.04.2018 22:00:00 17,2 11,7 12,3 16,7 11,8 4 2 8 4 NNW 1015,3 45 0 0,0
21.04.2018 21:00:00 19,9 13,1 15,9 16,6 11,8 6 3 13 7 W 1015,1 46 38 0,0
21.04.2018 20:00:00 23,6 12,3 24,6 16,5 11,8 5 3 12 7 WSW 1015,1 60 60 0,0
21.04.2018 19:00:00 24,6 12,9 27,6 16,3 11,7 8 5 15 8 S 1015,4 59 60 0,0
21.04.2018 18:00:00 24,8 11,7 30,1 16,1 11,7 9 5 16 8 S 1015,8 47 60 0,0
21.04.2018 17:00:00 25,0 11,9 30,1 15,9 11,7 10 5 22 12 S 1016,3 58 60 0,0
21.04.2018 16:00:00 24,5 11,4 29,7 15,6 11,7 14 8 24 13 S 1017,1 58 60 0,0
21.04.2018 15:00:00 24,7 12,9 29,9 15,4 11,7 14 8 27 15 S 1017,4 60 60 0,0
21.04.2018 14:00:00 24,1 12,7 29,4 15,1 11,7 16 8 24 13 SSW 1017,8 60 60 0,0
21.04.2018 13:00:00 23,8 13,3 28,3 15,0 11,6 15 8 26 14 S 1018,2 60 60 0,0
21.04.2018 12:00:00 22,8 13,8 22,3 14,9 11,6 14 8 22 12 S 1018,8 60 57 0,0
21.04.2018 11:00:00 20,4 12,6 21,6 14,9 11,6 11 6 19 10 SE 1019,0 53 45 0,0
21.04.2018 10:00:00 19,6 11,9 21,5 15,0 11,6 13 7 20 11 SSE 1019,0 20 60 0,0
21.04.2018 09:00:00 18,0 11,5 16,0 15,1 11,6 7 4 20 11 SSE 1018,8 58 38 0,0
21.04.2018 08:00:00 17,3 10,9 10,7 15,2 11,6 10 6 16 8 SE 1018,7 55 28 0,0
21.04.2018 07:00:00 14,2 9,2 10,6 15,3 11,6 9 5 14 7 ESE 1018,8 59 0 0,0
21.04.2018 06:00:00 13,8 9,6 10,3 15,4 11,6 11 6 14 8 E 1018,6 60 0 0,0
21.04.2018 05:00:00 15,1 10,5 11,2 15,5 11,6 9 5 13 7 ESE 1018,9 54 0 0,0
21.04.2018 04:00:00 14,8 10,8 11,5 15,6 11,5 10 5 12 7 E 1019,1 40 0 0,0
21.04.2018 03:00:00 16,0 10,7 11,1 15,8 11,6 5 3 14 8 ESE 1019,7 47 0 0,0
21.04.2018 02:00:00 14,2 11,2 10,2 15,9 11,5 11 6 18 10 NE 1020,0 37 0 0,0
21.04.2018 01:00:00 15,8 11,6 10,6 16,0 11,5 6 3 9 5 NNE 1020,0 53 0 0,0
21.04.2018 00:00:00 16,7 11,4 11,4 16,0 11,5 8 5 13 7 NNE 1020,3 59 0 0,0
20.04.2018 23:00:00 17,0 11,0 12,6 16,1 11,5 10 5 13 7 NNE 1020,5 59 0 0,0
20.04.2018 22:00:00 17,7 11,5 12,9 16,1 11,5 8 4 11 6 NNE 1020,4 60 0 0,0
20.04.2018 21:00:00 22,3 12,0 16,5 16,0 11,5 4 2 9 5 ENE 1020,0 60 36 0,0
20.04.2018 20:00:00 24,0 13,5 24,2 15,9 11,5 8 4 19 10 ENE 1019,8 18 60 0,0
20.04.2018 19:00:00 25,5 12,3 26,7 15,7 11,5 14 7 21 12 ENE 1020,0 60 60 0,0
20.04.2018 18:00:00 26,2 13,3 28,6 15,5 11,5 10 6 21 11 E 1020,4 19 60 0,0
20.04.2018 17:00:00 26,1 11,4 29,2 15,2 11,5 14 8 21 12 E 1021,0 16 60 0,0
20.04.2018 16:00:00 26,6 11,1 29,6 15,0 11,4 8 4 26 14 ENE 1021,4 60 60 0,0
20.04.2018 15:00:00 26,1 10,3 30,3 14,7 11,4 11 6 20 11 ESE 1021,9 19 60 0,0
20.04.2018 14:00:00 25,0 9,3 28,9 14,5 11,4 13 7 28 15 ESE 1022,4 19 60 0,0
20.04.2018 13:00:00 24,3 8,7 27,1 14,4 11,4 11 6 22 12 ESE 1022,8 19 60 0,0
20.04.2018 12:00:00 23,1 8,8 26,2 14,4 11,4 15 8 24 13 ESE 1023,1 60 60 0,0
20.04.2018 11:00:00 22,4 8,1 24,3 14,3 11,3 18 10 26 14 SE 1023,0 58 60 0,0
20.04.2018 10:00:00 21,1 12,2 20,3 14,4 11,4 11 6 15 8 E 1022,8 16 60 0,0
20.04.2018 09:00:00 17,2 11,2 11,6 14,5 11,3 8 4 11 6 E 1022,9 50 58 0,0
20.04.2018 08:00:00 12,0 8,3 7,9 14,7 11,3 9 5 10 5 E 1022,9 54 28 0,0
20.04.2018 07:00:00 13,1 8,2 7,9 14,8 11,3 6 4 11 6 E 1022,6 57 0 0,0
20.04.2018 06:00:00 13,6 8,0 8,8 14,9 11,3 7 4 13 7 ESE 1022,4 59 0 0,0
20.04.2018 05:00:00 17,2 8,3 13,6 15,0 11,3 10 5 19 10 SE 1022,7 60 0 0,0
20.04.2018 04:00:00 17,7 9,3 10,4 15,2 11,3 11 6 19 10 SE 1022,6 60 0 0,0
20.04.2018 03:00:00 13,5 10,1 10,4 15,3 11,3 11 6 16 9 E 1022,7 53 0 0,0
20.04.2018 02:00:00 14,1 10,7 10,1 15,4 11,3 10 5 11 6 E 1022,8 53 0 0,0
20.04.2018 01:00:00 15,5 10,9 10,8 15,5 11,3 9 5 11 6 NE 1022,6 54 0 0,0
20.04.2018 00:00:00 15,7 11,3 11,0 15,5 11,3 9 5 11 6 NE 1022,7 59 0 0,0
19.04.2018 23:00:00 16,7 11,4 11,4 15,6 11,3 7 4 8 5 ENE 1022,8 59 0 0,0
19.04.2018 22:00:00 18,3 9,9 12,5 15,5 11,2 4 2 5 3 NE 1022,7 60 0 0,0
19.04.2018 21:00:00 21,2 10,7 15,3 15,5 11,2 3 2 6 3 E 1022,1 60 35 0,0
19.04.2018 20:00:00 23,5 9,1 24,4 15,3 11,2 4 2 11 6 SSE 1021,9 60 60 0,0
19.04.2018 19:00:00 24,2 11,5 27,6 15,1 11,2 9 5 20 11 S 1022,0 58 60 0,0
19.04.2018 18:00:00 24,6 11,5 28,9 14,9 11,2 11 6 22 12 S 1021,9 20 60 0,0
19.04.2018 17:00:00 24,5 11,8 29,1 14,6 11,2 15 8 23 12 S 1021,9 60 60 0,0
19.04.2018 16:00:00 24,6 12,2 25,8 14,3 11,2 12 7 23 12 S 1022,2 60 60 0,0
19.04.2018 15:00:00 23,6 13,7 28,8 14,1 11,2 13 7 25 14 SSE 1022,6 20 60 0,0
19.04.2018 14:00:00 22,9 12,5 27,0 13,8 11,1 14 8 26 14 SSE 1022,7 60 60 0,0
19.04.2018 13:00:00 22,0 12,0 25,7 13,7 11,1 13 7 21 11 ESE 1023,0 60 60 0,0
19.04.2018 12:00:00 20,7 11,6 24,3 13,7 11,1 13 7 23 12 ESE 1023,2 50 60 0,0
19.04.2018 11:00:00 19,9 10,6 21,5 13,6 11,1 13 7 29 15 SSE 1023,0 44 60 0,0
19.04.2018 10:00:00 18,4 8,9 19,5 13,7 11,1 16 9 28 15 SE 1023,0 60 60 0,0
19.04.2018 09:00:00 17,0 9,4 15,3 13,8 11,1 13 7 24 13 SE 1022,9 60 60 0,0
19.04.2018 08:00:00 15,5 9,8 11,1 13,8 11,1 11 6 18 10 ESE 1023,0 55 26 0,0
19.04.2018 07:00:00 15,4 10,0 13,2 13,9 11,1 11 6 18 10 ESE 1022,6 60 0 0,0
19.04.2018 06:00:00 15,8 10,5 13,5 14,1 11,1 11 6 19 11 ESE 1022,3 60 0 0,0
19.04.2018 05:00:00 16,2 10,5 13,7 14,2 11,1 11 6 20 11 SE 1022,3 60 0 0,0
19.04.2018 04:00:00 17,5 10,6 11,7 14,3 11,1 14 8 23 12 SE 1022,2 60 0 0,0
19.04.2018 03:00:00 15,6 10,4 9,0 14,4 11,1 9 5 13 7 ESE 1022,1 60 0 0,0
19.04.2018 02:00:00 14,4 10,2 9,4 14,5 11,1 9 5 13 7 ESE 1022,4 60 0 0,0
19.04.2018 01:00:00 14,4 10,8 10,0 14,5 11,1 9 5 12 7 E 1022,4 60 0 0,0
19.04.2018 00:00:00 16,4 10,9 10,6 14,6 11,1 9 5 11 6 ENE 1022,3 60 0 0,0
18.04.2018 23:00:00 17,5 11,1 11,9 14,6 11,1 9 5 10 5 E 1022,3 60 0 0,0
18.04.2018 22:00:00 18,5 11,6 12,5 14,5 11,0 6 3 8 4 ENE 1022,2 60 0 0,0
18.04.2018 21:00:00 22,3 10,4 15,3 14,4 11,0 0 0 5 3 N 1022,0 60 34 0,0
18.04.2018 20:00:00 24,1 12,7 24,9 14,2 11,0 5 3 14 8 S 1021,9 60 60 0,0
18.04.2018 19:00:00 25,2 11,7 28,1 14,1 11,0 12 6 22 12 SSW 1021,9 58 60 0,0
18.04.2018 18:00:00 25,6 11,4 28,4 13,7 11,0 12 7 29 15 SSE 1021,9 59 60 0,0
18.04.2018 17:00:00 25,8 10,4 28,8 13,5 11,0 17 9 36 20 SSE 1022,1 44 60 0,0
18.04.2018 16:00:00 25,4 10,4 28,5 13,2 11,0 22 12 39 21 SE 1022,4 42 60 0,0
18.04.2018 15:00:00 24,9 11,8 27,5 13,0 11,0 22 12 40 21 SE 1022,9 47 60 0,0
18.04.2018 14:00:00 23,7 12,0 27,3 12,8 11,0 21 12 37 20 ESE 1023,1 55 60 0,0
18.04.2018 13:00:00 23,2 11,6 26,1 12,7 11,0 18 10 30 16 SE 1023,5 60 60 0,0
18.04.2018 12:00:00 22,1 10,3 24,2 12,6 11,0 19 10 28 15 SE 1023,9 20 60 0,0
18.04.2018 11:00:00 20,2 11,4 20,1 12,6 11,0 15 8 30 16 ESE 1024,4 41 60 0,0
18.04.2018 10:00:00 17,5 10,4 15,6 12,7 11,0 18 10 28 15 E 1024,5 20 60 0,0
18.04.2018 09:00:00 14,3 9,1 9,5 12,8 11,0 21 11 29 15 E 1024,8 60 60 0,0
18.04.2018 08:00:00 10,0 7,6 5,5 12,9 10,9 10 6 14 8 ENE 1025,1 56 24 0,0

tt = Température de l'air
td = dewpoint
tt 5cm = Température de l'air 5cm
tt -20cm = Température de l'air -20cm
tt -100cm = Température de l'air -100cm
ff = Vitesse du vent
fx = gusts
dd = Direction du vent
ppp = reduced air pressure
vv = visibility
sd = Ensoleillement
rr = Quantités de précipitations

stations d'obs. à proximité